| time (UTC) | temp F | wind direction | speed knots | gust knots | rain 1hr in | rain 24hr in | rain mn in | humidity % | barometer mb |
| 20260831021537 | 72 | 292 | 0.9 | 3.5 | 0.00 | 0.00 | 0.00 | 81 | 1016.6 |
| 20260831020055 | 71 | 310 | 0.0 | 2.6 | 0.00 | 0.00 | 0.00 | 81 | 1016.6 |
| 20260831014529 | 72 | 306 | 0.0 | 0.9 | 0.00 | 0.00 | 0.00 | 80 | 1016.4 |
| 20260831013028 | 72 | 306 | 0.0 | 1.7 | 0.00 | 0.00 | 0.00 | 79 | 1016.4 |
| 20260831011529 | 72 | 304 | 0.0 | 1.7 | 0.00 | 0.00 | 0.00 | 79 | 1016.2 |
| 20260831010028 | 72 | 296 | 0.0 | 1.7 | 0.00 | 0.00 | 0.00 | 78 | 1015.9 |
| 20260831004527 | 72 | 309 | 0.0 | 1.7 | 0.00 | 0.00 | 0.00 | 77 | 1015.8 |
| 20260831003027 | 72 | 310 | 0.0 | 1.7 | 0.00 | 0.00 | 0.00 | 76 | 1015.7 |
| 20260831001529 | 72 | 311 | 0.0 | 1.7 | 0.00 | 0.00 | 0.00 | 75 | 1015.6 |
| 20260831000026 | 73 | 311 | 0.0 | 0.9 | 0.00 | 0.00 | 0.00 | 74 | 1015.5 |
| 20260830234538 | 73 | 312 | 0.0 | 0.9 | 0.00 | 0.00 | 0.00 | 73 | 1015.3 |
| 20260830233027 | 73 | 312 | 0.0 | 0.9 | 0.00 | 0.00 | 0.00 | 72 | 1015.1 |
| 20260830231527 | 73 | 312 | 0.0 | 0.9 | 0.00 | 0.00 | 0.00 | 70 | 1015.2 |
| 20260830230021 | 74 | 312 | 0.0 | 0.9 | 0.00 | 0.00 | 0.00 | 69 | 1015.3 |
| 20260830224519 | 74 | 312 | 0.0 | 0.0 | 0.00 | 0.00 | 0.00 | 69 | 1015.6 |
| 20260830223018 | 74 | 312 | 0.0 | 0.9 | 0.00 | 0.00 | 0.00 | 67 | 1015.6 |
| 20260830221517 | 75 | 312 | 0.0 | 1.7 | 0.00 | 0.00 | 0.00 | 67 | 1015.7 |
| 20260830220017 | 75 | 305 | 0.0 | 0.9 | 0.00 | 0.00 | 0.00 | 69 | 1015.7 |
| 20260830214516 | 75 | 305 | 0.0 | 0.9 | 0.00 | 0.00 | 0.00 | 71 | 1015.7 |
| 20260830213032 | 75 | 305 | 0.0 | 0.0 | 0.00 | 0.00 | 0.00 | 71 | 1015.7 |
| 20260830211514 | 75 | 305 | 0.0 | 0.0 | 0.00 | 0.00 | 0.00 | 69 | 1015.8 |
| 20260830210032 | 75 | 305 | 0.0 | 0.9 | 0.00 | 0.00 | 0.00 | 69 | 1016.1 |
| 20260830204510 | 76 | 305 | 0.0 | 0.9 | 0.00 | 0.00 | 0.00 | 67 | 1015.9 |
| 20260830203010 | 76 | 300 | 0.0 | 1.7 | 0.00 | 0.00 | 0.00 | 66 | 1016.1 |
| 20260830201509 | 76 | 312 | 0.9 | 1.7 | 0.00 | 0.00 | 0.00 | 65 | 1016.3 |
| 20260830200008 | 76 | 317 | 0.9 | 2.6 | 0.00 | 0.00 | 0.00 | 64 | 1016.3 |
| 20260830194506 | 76 | 343 | 0.0 | 3.5 | 0.00 | 0.00 | 0.00 | 64 | 1016.4 |
| 20260830193009 | 76 | 316 | 0.0 | 1.7 | 0.00 | 0.00 | 0.00 | 64 | 1016.7 |
| 20260830191503 | 76 | 316 | 0.0 | 1.7 | 0.00 | 0.00 | 0.00 | 63 | 1017.0 |
| 20260830190100 | 77 | 315 | 0.0 | 2.6 | 0.00 | 0.00 | 0.00 | 62 | 1017.1 |
| 20260830184607 | 78 | 315 | 0.0 | 2.6 | 0.00 | 0.00 | 0.00 | 61 | 1017.2 |
| 20260830183058 | 78 | 319 | 0.9 | 3.5 | 0.00 | 0.00 | 0.00 | 60 | 1017.2 |
| 20260830181559 | 77 | 310 | 0.9 | 3.5 | 0.00 | 0.00 | 0.00 | 61 | 1017.3 |
| 20260830180055 | 77 | 312 | 0.9 | 5.2 | 0.00 | 0.00 | 0.00 | 61 | 1017.5 |
| 20260830174558 | 77 | 305 | 0.9 | 3.5 | 0.00 | 0.00 | 0.00 | 62 | 1017.7 |
| 20260830173052 | 77 | 314 | 0.9 | 6.1 | 0.00 | 0.00 | 0.00 | 60 | 1018.1 |
| 20260830171550 | 77 | 306 | 0.0 | 3.5 | 0.00 | 0.00 | 0.00 | 62 | 1018.1 |
| 20260830170049 | 76 | 295 | 1.7 | 4.3 | 0.00 | 0.00 | 0.00 | 61 | 1018.1 |
| 20260830164549 | 76 | 304 | 0.9 | 5.2 | 0.00 | 0.00 | 0.00 | 60 | 1018.3 |
| 20260830163046 | 76 | 314 | 0.9 | 6.1 | 0.00 | 0.00 | 0.00 | 61 | 1018.4 |
| 20260830161601 | 75 | 288 | 3.5 | 6.1 | 0.00 | 0.00 | 0.00 | 60 | 1018.4 |
| 20260830160044 | 75 | 310 | 1.7 | 4.3 | 0.00 | 0.00 | 0.00 | 60 | 1018.7 |
| 20260830154543 | 77 | 284 | 0.9 | 5.2 | 0.00 | 0.00 | 0.00 | 58 | 1018.6 |
| 20260830153053 | 77 | 298 | 1.7 | 7.0 | 0.00 | 0.00 | 0.00 | 57 | 1018.7 |
| 20260830151546 | 77 | 279 | 3.5 | 7.8 | 0.00 | 0.00 | 0.00 | 58 | 1018.8 |
| 20260830150044 | 78 | 316 | 2.6 | 6.1 | 0.00 | 0.00 | 0.00 | 57 | 1018.9 |
| 20260830144538 | 77 | 305 | 1.7 | 5.2 | 0.00 | 0.00 | 0.00 | 61 | 1018.7 |
| 20260830143043 | 76 | 308 | 0.9 | 5.2 | 0.00 | 0.00 | 0.00 | 63 | 1019.0 |
| 20260830141531 | 75 | 300 | 0.0 | 2.6 | 0.00 | 0.00 | 0.00 | 65 | 1019.0 |
| 20260830140027 | 74 | 296 | 0.0 | 4.3 | 0.00 | 0.00 | 0.00 | 67 | 1019.3 |
| 20260830134531 | 73 | 291 | 0.9 | 5.2 | 0.00 | 0.00 | 0.00 | 68 | 1019.3 |
| 20260830133018 | 72 | 310 | 0.0 | 2.6 | 0.00 | 0.00 | 0.00 | 71 | 1019.3 |
| 20260830131515 | 70 | 303 | 0.0 | 1.7 | 0.00 | 0.00 | 0.00 | 72 | 1019.5 |
| 20260830130011 | 68 | 307 | 0.0 | 2.6 | 0.00 | 0.00 | 0.00 | 74 | 1019.7 |
| 20260830124505 | 67 | 305 | 0.0 | 1.7 | 0.00 | 0.00 | 0.00 | 76 | 1019.9 |
| 20260830123002 | 66 | 305 | 0.0 | 2.6 | 0.00 | 0.00 | 0.00 | 77 | 1020.0 |
| 20260830121557 | 64 | 305 | 0.0 | 0.9 | 0.00 | 0.00 | 0.00 | 80 | 1020.0 |
| 20260830120056 | 62 | 305 | 0.0 | 0.9 | 0.00 | 0.00 | 0.00 | 82 | 1020.0 |
| 20260830114608 | 61 | 305 | 0.0 | 0.9 | 0.00 | 0.00 | 0.00 | 85 | 1020.1 |
| 20260830113050 | 60 | 305 | 0.0 | 0.0 | 0.00 | 0.00 | 0.00 | 86 | 1020.1 |
| 20260830111545 | 60 | 305 | 0.0 | 0.0 | 0.00 | 0.00 | 0.00 | 87 | 1020.1 |
| 20260830110044 | 59 | 305 | 0.0 | 0.0 | 0.00 | 0.00 | 0.00 | 87 | 1020.0 |
| 20260830104541 | 59 | 305 | 0.0 | 0.0 | 0.00 | 0.00 | 0.00 | 87 | 1020.1 |
| 20260830103041 | 59 | 305 | 0.0 | 0.0 | 0.00 | 0.00 | 0.00 | 87 | 1020.0 |
| 20260830101550 | 59 | 305 | 0.0 | 0.0 | 0.00 | 0.00 | 0.00 | 88 | 1020.1 |
| 20260830100041 | 59 | 305 | 0.0 | 0.0 | 0.00 | 0.00 | 0.00 | 88 | 1020.2 |
| 20260830094540 | 59 | 305 | 0.0 | 0.0 | 0.00 | 0.00 | 0.00 | 88 | 1020.1 |
| 20260830093038 | 59 | 305 | 0.0 | 0.0 | 0.00 | 0.00 | 0.00 | 87 | 1020.1 |
| 20260830091539 | 60 | 305 | 0.0 | 0.0 | 0.00 | 0.00 | 0.00 | 86 | 1020.0 |
| 20260830090037 | 60 | 305 | 0.0 | 0.0 | 0.00 | 0.00 | 0.00 | 85 | 1020.2 |
| 20260830084532 | 59 | 305 | 0.0 | 0.0 | 0.00 | 0.00 | 0.00 | 85 | 1020.4 |
| 20260830083031 | 59 | 305 | 0.0 | 0.0 | 0.00 | 0.00 | 0.00 | 86 | 1020.7 |
| 20260830081530 | 59 | 305 | 0.0 | 0.0 | 0.00 | 0.00 | 0.00 | 86 | 1020.7 |
| 20260830080030 | 59 | 305 | 0.0 | 0.0 | 0.00 | 0.00 | 0.00 | 86 | 1020.6 |
| 20260830074532 | 59 | 305 | 0.0 | 0.0 | 0.00 | 0.00 | 0.00 | 87 | 1020.6 |
| 20260830073028 | 59 | 305 | 0.0 | 0.0 | 0.00 | 0.00 | 0.00 | 88 | 1020.6 |
| 20260830071528 | 58 | 305 | 0.0 | 0.0 | 0.00 | 0.00 | 0.00 | 89 | 1020.6 |
| 20260830070031 | 58 | 305 | 0.0 | 0.0 | 0.00 | 0.00 | 0.00 | 89 | 1020.4 |
| 20260830064526 | 58 | 305 | 0.0 | 0.0 | 0.00 | 0.00 | 0.00 | 89 | 1020.4 |
| 20260830063024 | 58 | 305 | 0.0 | 0.0 | 0.00 | 0.00 | 0.00 | 89 | 1020.4 |
| 20260830061523 | 58 | 305 | 0.0 | 0.0 | 0.00 | 0.00 | 0.00 | 88 | 1020.5 |
| 20260830060022 | 58 | 305 | 0.0 | 0.0 | 0.00 | 0.00 | 0.00 | 89 | 1020.7 |
| 20260830054520 | 58 | 305 | 0.0 | 0.0 | 0.00 | 0.00 | 0.00 | 88 | 1020.7 |
| 20260830053019 | 58 | 305 | 0.0 | 0.0 | 0.00 | 0.00 | 0.00 | 87 | 1020.8 |
| 20260830051517 | 59 | 305 | 0.0 | 0.0 | 0.00 | 0.00 | 0.00 | 86 | 1020.8 |
| 20260830050015 | 59 | 305 | 0.0 | 0.0 | 0.00 | 0.00 | 0.00 | 86 | 1020.9 |
| 20260830044518 | 59 | 305 | 0.0 | 0.0 | 0.00 | 0.00 | 0.00 | 86 | 1020.8 |
| 20260830043020 | 59 | 305 | 0.0 | 0.0 | 0.00 | 0.00 | 0.00 | 85 | 1020.8 |
| 20260830041511 | 59 | 305 | 0.0 | 0.0 | 0.00 | 0.00 | 0.00 | 84 | 1020.7 |
| 20260830040008 | 60 | 305 | 0.0 | 0.9 | 0.00 | 0.00 | 0.00 | 84 | 1020.8 |
| 20260830034508 | 60 | 305 | 0.0 | 0.9 | 0.00 | 0.00 | 0.00 | 84 | 1020.6 |
| 20260830033007 | 60 | 305 | 0.0 | 0.0 | 0.00 | 0.00 | 0.00 | 83 | 1020.7 |
| 20260830031507 | 60 | 305 | 0.0 | 0.0 | 0.00 | 0.00 | 0.00 | 82 | 1020.8 |
| 20260830030006 | 61 | 305 | 0.0 | 0.0 | 0.00 | 0.00 | 0.00 | 82 | 1020.8 |
| 20260830024510 | 61 | 305 | 0.0 | 0.0 | 0.00 | 0.00 | 0.00 | 80 | 1020.8 |
| 20260830023006 | 62 | 305 | 0.0 | 0.0 | 0.00 | 0.00 | 0.00 | 79 | 1020.8 |